Waarnemingen

Advertentie
Mijn weer
Saelices el Chico, Spanje (8195): temperatuur & dauwpunt: 03.07.2020 09:00:00 - 09.07.2020 09:00:00 (CEST)Saelices el Chico, Spanje (8195): windsnelheid & windstoten: 03.07.2020 09:00:00 - 09.07.2020 09:00:00 (CEST)Saelices el Chico, Spanje (8195): windrichting: 03.07.2020 09:00:00 - 09.07.2020 09:00:00 (CEST)Saelices el Chico, Spanje (8195): luchtdruk: 03.07.2020 09:00:00 - 09.07.2020 09:00:00 (CEST)Saelices el Chico, Spanje (8195): zicht: 03.07.2020 09:00:00 - 09.07.2020 09:00:00 (CEST)Saelices el Chico, Spanje (8195): Zonneschijnduur: 03.07.2020 09:00:00 - 09.07.2020 09:00:00 (CEST)Saelices el Chico, Spanje (8195): neerslag: 03.07.2020 09:00:00 - 09.07.2020 09:00:00 (CEST)
Datum & Tijd tt [°C] td [°C] ff [km/u] ff [kn] fx [km/u] fx [kn] dd ppp [hPa] vv [km] sd [min] rr [mm]
09.07.2020 09:00:00 - - - - - - - - - - -
09.07.2020 08:00:00 16,0 10,5 3 2 7 4 O 1016,1 20 40 -
09.07.2020 07:00:00 13,7 9,7 3 2 10 5 NNW 1016,2 20 0 0,0
09.07.2020 06:00:00 14,1 9,2 8 5 15 8 O 1015,4 20 0 0,0
09.07.2020 05:00:00 16,4 9,6 3 2 11 6 OZO 1014,1 20 0 0,0
09.07.2020 04:00:00 18,3 9,7 7 4 15 8 Z 1013,0 20 0 0,0
09.07.2020 03:00:00 21,2 9,2 11 6 20 11 O 1012,3 20 0 0,0
09.07.2020 02:00:00 22,8 9,2 11 6 31 17 NO 1012,5 20 0 -
09.07.2020 01:00:00 22,9 8,5 10 5 25 14 W 1012,6 20 0 0,0
09.07.2020 00:00:00 22,7 9,4 16 9 34 18 NNW 1012,1 20 0 0,0
08.07.2020 23:00:00 23,9 12,8 14 8 34 18 WNW 1011,6 20 0 0,0
08.07.2020 22:00:00 26,3 8,8 14 8 32 17 WNW 1010,1 20 12 0,0
08.07.2020 21:00:00 30,5 6,4 14 7 26 14 WNW 1007,8 20 60 0,0
08.07.2020 20:00:00 32,9 -2,7 9 5 31 17 ZW 1006,7 20 60 -
08.07.2020 19:00:00 33,3 0,0 16 8 36 19 ZZW 1006,5 20 60 0,0
08.07.2020 18:00:00 34,0 0,6 13 7 41 22 ZW 1006,6 20 60 0,0
08.07.2020 17:00:00 34,0 0,6 19 10 45 24 ZZW 1007,3 20 60 0,0
08.07.2020 16:00:00 33,9 3,6 21 11 41 22 Z 1007,6 20 60 0,0
08.07.2020 15:00:00 34,2 2,9 18 10 45 24 Z 1007,5 20 57 0,0
08.07.2020 14:00:00 34,1 2,9 21 11 38 20 Z 1007,7 20 60 -
08.07.2020 13:00:00 34,1 2,9 18 10 36 19 ZZO 1007,8 20 60 0,0
08.07.2020 12:00:00 32,4 5,0 17 9 35 19 ZO 1008,3 20 60 0,0
08.07.2020 11:00:00 29,3 9,4 9 5 16 9 OZO 1009,3 20 60 0,0
08.07.2020 10:00:00 25,1 10,9 4 2 16 9 N 1010,2 20 60 0,0
08.07.2020 09:00:00 19,7 10,2 10 5 16 9 W 1011,5 20 60 0,0
08.07.2020 08:00:00 17,5 9,4 8 4 11 6 OZO 1011,8 20 8 -
08.07.2020 07:00:00 16,4 9,8 9 5 11 6 OZO 1012,2 20 0 0,0
08.07.2020 06:00:00 17,8 10,4 5 3 8 4 O 1011,9 20 0 0,0
08.07.2020 05:00:00 18,9 8,5 2 1 8 5 ZO 1011,9 20 0 0,0
08.07.2020 04:00:00 19,7 11,0 5 3 8 4 ONO 1012,0 20 0 0,0
08.07.2020 03:00:00 20,9 10,0 6 3 10 5 NW 1012,4 20 0 0,0
08.07.2020 02:00:00 22,6 10,4 6 4 11 6 N 1012,2 20 0 -
08.07.2020 01:00:00 24,1 7,3 6 3 10 5 NW 1012,4 20 0 0,0
08.07.2020 00:00:00 24,2 4,5 3 2 8 4 N 1012,3 20 0 0,0
07.07.2020 23:00:00 27,4 2,5 5 3 8 4 WNW 1011,3 20 0 0,0
07.07.2020 22:00:00 30,0 3,8 2 1 11 6 ZZW 1010,2 20 0 0,0
07.07.2020 21:00:00 33,7 1,5 7 4 18 10 W 1009,0 20 47 0,0
07.07.2020 20:00:00 35,6 2,9 12 7 29 16 WZW 1008,5 20 60 -
07.07.2020 19:00:00 36,4 2,5 13 7 39 21 W 1008,5 20 60 0,0
07.07.2020 18:00:00 36,9 1,7 9 5 36 19 W 1008,7 20 60 0,0
07.07.2020 17:00:00 36,8 -1,2 16 8 36 19 WZW 1009,4 19 60 0,0
07.07.2020 16:00:00 36,5 2,5 11 6 31 17 ZW 1009,8 20 60 0,0
07.07.2020 15:00:00 35,1 4,6 12 6 33 18 ZZW 1010,5 20 55 0,0
07.07.2020 14:00:00 34,6 6,8 8 5 25 14 ZZO 1010,8 20 60 -
07.07.2020 13:00:00 32,1 10,2 6 3 16 9 W 1011,9 20 60 0,0
07.07.2020 12:00:00 29,3 8,9 5 3 13 7 NW 1012,9 20 60 0,0
07.07.2020 11:00:00 26,4 9,3 4 2 13 7 NW 1013,7 20 60 0,0
07.07.2020 10:00:00 24,0 9,6 4 2 8 5 O 1014,3 20 60 0,0
07.07.2020 09:00:00 20,8 9,7 3 1 13 7 WNW 1014,9 20 60 0,0
07.07.2020 08:00:00 17,2 10,0 5 3 13 7 WNW 1015,6 20 46 -
07.07.2020 07:00:00 16,8 9,2 8 4 12 6 ZO 1015,6 20 0 0,0
07.07.2020 06:00:00 18,4 8,9 9 5 16 9 O 1015,0 20 0 0,0
07.07.2020 05:00:00 18,9 9,4 8 4 17 9 O 1015,2 20 0 0,0
07.07.2020 04:00:00 20,4 10,5 2 1 11 6 NNO 1014,9 20 0 0,0
07.07.2020 03:00:00 22,1 10,3 8 5 14 7 OZO 1014,9 20 0 0,0
07.07.2020 02:00:00 24,1 10,8 7 4 14 8 ONO 1014,4 20 0 -
07.07.2020 01:00:00 24,1 7,7 9 5 18 10 N 1014,7 20 0 0,0
07.07.2020 00:00:00 26,2 6,2 10 5 16 9 NNW 1014,1 20 0 0,0
06.07.2020 23:00:00 28,4 6,4 8 5 26 14 NNW 1013,6 20 0 0,0
06.07.2020 22:00:00 30,0 8,4 10 6 14 8 NNO 1012,1 20 28 0,0
06.07.2020 21:00:00 34,5 6,7 8 5 18 10 N 1010,6 20 60 0,0
06.07.2020 20:00:00 35,5 5,0 10 5 31 17 N 1010,6 20 60 -
06.07.2020 19:00:00 36,5 4,6 12 6 26 14 NW 1010,7 20 60 0,0
06.07.2020 18:00:00 37,1 5,1 5 3 21 11 NW 1010,8 20 60 0,0
06.07.2020 17:00:00 36,9 5,0 8 4 23 13 WNW 1011,3 20 60 0,0
06.07.2020 16:00:00 36,3 4,5 10 5 28 15 NO 1012,0 20 60 0,0
06.07.2020 15:00:00 35,8 4,1 13 7 24 13 N 1012,5 20 56 0,0
06.07.2020 14:00:00 34,6 7,6 6 3 20 11 NNW 1013,4 20 60 -
06.07.2020 13:00:00 33,8 8,4 6 3 16 8 OZO 1013,9 20 60 0,0
06.07.2020 12:00:00 31,4 10,2 5 3 15 8 ONO 1014,7 20 60 0,0
06.07.2020 11:00:00 28,3 10,5 5 3 14 7 WNW 1015,9 20 60 0,0
06.07.2020 10:00:00 25,1 10,2 4 2 10 5 NNO 1016,9 20 60 0,0
06.07.2020 09:00:00 22,1 9,6 2 1 9 5 NO 1017,6 20 60 0,0
06.07.2020 08:00:00 17,7 9,0 6 3 10 6 W 1018,7 20 50 -
06.07.2020 07:00:00 16,3 8,0 4 2 9 5 ZZO 1018,7 20 0 0,0
06.07.2020 06:00:00 16,8 7,4 7 4 9 5 O 1018,4 20 0 0,0
06.07.2020 05:00:00 17,8 7,6 5 3 10 5 OZO 1018,3 20 0 0,0
06.07.2020 04:00:00 18,4 7,4 6 4 10 5 OZO 1018,3 20 0 0,0
06.07.2020 03:00:00 20,2 6,8 4 2 12 6 ONO 1018,0 20 0 0,0
06.07.2020 02:00:00 22,0 7,0 7 4 14 7 NNW 1017,7 20 0 -
06.07.2020 01:00:00 23,7 5,1 10 5 20 11 WNW 1017,4 20 0 0,0
06.07.2020 00:00:00 24,6 4,8 2 1 13 7 Z 1016,8 20 0 0,0
05.07.2020 23:00:00 26,3 5,3 5 3 14 7 NNW 1016,1 20 0 0,0
05.07.2020 22:00:00 29,1 5,1 9 5 13 7 N 1014,7 20 32 0,0
05.07.2020 21:00:00 33,3 3,2 9 5 31 17 NNW 1013,6 20 60 0,0
05.07.2020 20:00:00 35,1 1,5 6 3 27 15 NW 1012,8 20 60 -
05.07.2020 19:00:00 35,7 0,6 11 6 26 14 W 1012,9 20 60 0,0
05.07.2020 18:00:00 36,2 -0,3 5 3 22 12 W 1013,2 20 60 0,0
05.07.2020 17:00:00 36,3 -0,3 7 4 25 14 W 1013,8 20 60 0,0
05.07.2020 16:00:00 35,7 0,6 13 7 32 17 ZW 1014,2 20 60 0,0
05.07.2020 15:00:00 34,9 0,0 8 5 22 12 Z 1014,8 20 55 0,0
05.07.2020 14:00:00 34,4 0,9 6 3 16 9 Z 1015,6 20 60 -
05.07.2020 13:00:00 32,1 3,9 6 4 15 8 O 1016,7 20 60 0,0
05.07.2020 12:00:00 29,8 5,8 4 2 11 6 ZZW 1017,4 20 60 0,0
05.07.2020 11:00:00 25,6 5,8 4 2 10 5 NW 1018,8 20 60 0,0
05.07.2020 10:00:00 22,2 4,6 3 2 10 5 ZZW 1020,1 20 60 0,0
05.07.2020 09:00:00 19,5 4,8 1 1 6 4 OZO 1020,6 20 60 0,0
05.07.2020 08:00:00 15,8 5,5 3 2 7 4 Z 1021,1 20 55 -
05.07.2020 07:00:00 13,9 4,5 7 4 9 5 ZZW 1021,5 20 0 0,0
05.07.2020 06:00:00 15,5 3,9 5 3 9 5 ZZW 1020,8 20 0 0,0
05.07.2020 05:00:00 17,8 3,6 7 4 20 11 ZW 1020,1 20 0 0,0
05.07.2020 04:00:00 21,0 2,7 5 3 22 12 OZO 1019,4 20 0 0,0
05.07.2020 03:00:00 20,8 3,0 8 4 21 12 NO 1020,0 20 0 0,0
05.07.2020 02:00:00 21,6 1,7 6 3 11 6 OZO 1020,2 20 0 -
05.07.2020 01:00:00 23,0 1,3 8 4 13 7 OZO 1019,9 20 0 0,0
05.07.2020 00:00:00 24,0 1,5 7 4 23 12 ZO 1019,5 20 0 0,0
04.07.2020 23:00:00 25,0 0,4 13 7 22 12 NNO 1018,8 20 0 0,0
04.07.2020 22:00:00 25,5 0,9 13 7 19 10 N 1018,0 20 10 0,0
04.07.2020 21:00:00 29,2 0,0 13 7 22 12 N 1016,8 20 43 0,0
04.07.2020 20:00:00 32,6 -0,5 11 6 26 14 N 1015,6 20 60 -
04.07.2020 19:00:00 32,6 0,6 13 7 25 14 NNO 1015,7 20 60 0,0
04.07.2020 18:00:00 33,7 0,4 6 3 43 23 N 1015,8 1,8 60 0,0
04.07.2020 17:00:00 33,0 -0,3 8 4 29 15 NNW 1016,3 20 60 0,0
04.07.2020 16:00:00 32,3 -0,7 12 6 27 15 NNO 1017,1 20 60 0,0
04.07.2020 15:00:00 31,7 0,9 5 3 24 13 N 1017,6 20 55 0,0
04.07.2020 14:00:00 30,6 1,9 12 6 27 14 O 1018,4 20 60 -
04.07.2020 13:00:00 29,5 1,9 12 6 29 16 ONO 1019,1 20 60 0,0
04.07.2020 12:00:00 27,6 3,9 8 5 30 16 NO 1019,7 20 60 0,0
04.07.2020 11:00:00 25,2 4,3 4 2 15 8 NO 1020,4 20 60 0,0
04.07.2020 10:00:00 19,2 6,7 7 4 14 8 WNW 1022,0 20 60 0,0
04.07.2020 09:00:00 15,5 7,3 6 3 11 6 W 1022,9 20 60 0,0
04.07.2020 08:00:00 12,2 6,2 6 3 8 5 OZO 1023,4 20 55 -
04.07.2020 07:00:00 11,3 5,6 6 4 9 5 ZO 1023,6 20 0 0,0
04.07.2020 06:00:00 11,8 6,1 3 2 9 5 ONO 1022,9 20 0 0,0
04.07.2020 05:00:00 13,0 5,5 3 2 14 8 O 1022,3 20 0 0,0
04.07.2020 04:00:00 15,8 5,1 10 5 21 11 NNW 1021,5 20 0 0,0
04.07.2020 03:00:00 15,4 4,5 11 6 16 9 NNW 1021,9 20 0 0,0
04.07.2020 02:00:00 17,3 3,6 5 3 15 8 NW 1021,6 20 0 -
04.07.2020 01:00:00 18,4 3,4 10 5 23 13 NNW 1021,1 20 0 0,0
04.07.2020 00:00:00 20,0 2,3 9 5 23 13 NNW 1020,4 20 0 0,0
03.07.2020 23:00:00 21,0 2,7 9 5 18 10 NNW 1019,4 20 0 0,0
03.07.2020 22:00:00 24,0 1,5 11 6 27 14 N 1017,8 20 32 0,0
03.07.2020 21:00:00 27,5 1,1 17 9 28 15 N 1016,5 20 60 0,0
03.07.2020 20:00:00 29,4 0,9 12 7 29 16 NNW 1015,8 20 60 -
03.07.2020 19:00:00 29,5 1,1 12 7 33 18 NNW 1015,6 20 60 0,0
03.07.2020 18:00:00 29,9 1,3 9 5 28 15 NNW 1015,6 20 60 0,0
03.07.2020 17:00:00 29,9 1,3 9 5 29 16 N 1015,8 20 60 0,0
03.07.2020 16:00:00 28,9 2,9 13 7 35 19 NNO 1016,4 20 60 0,0
03.07.2020 15:00:00 27,4 3,8 14 7 31 17 NNO 1017,0 20 56 0,0
03.07.2020 14:00:00 26,2 4,6 14 7 29 15 ONO 1017,6 20 60 -
03.07.2020 13:00:00 24,8 5,6 16 9 29 15 ONO 1018,4 20 60 0,0
03.07.2020 12:00:00 22,2 8,0 18 10 29 16 NO 1019,0 20 60 0,0
03.07.2020 11:00:00 20,3 8,7 13 7 32 18 ONO 1019,6 20 60 0,0
03.07.2020 10:00:00 17,4 8,5 15 8 24 13 ONO 1020,4 20 60 0,0
03.07.2020 09:00:00 14,8 8,3 16 9 31 17 NO 1021,1 20 60 0,0

tt = temperatuur
td = dauwpunt
ff = windsnelheid
fx = windstoten
dd = windrichting
ppp = luchtdruk
vv = zicht
sd = Zonneschijnduur
rr = neerslag

Weerstations in de omgeving